カタログに戻る

DELTA 1 DEB

運用中PO
NORAD 12288·DEBRIS·🇺🇸 United States

打ち上げ Mar 5, 1978 から Vandenberg Space Force Base

Loading…

次のパス (今後24時間)

TLE

最新Source: Space-Track

元期: Sep 13, 2026, 10:41 UTC

1 12288U 78026EG  26256.44575637  .00000660  00000-0  30860-3 0  9998
2 12288  99.1949 249.2532 0076226 267.0989 256.6477 14.22507356343658

AllMySatでDELTA 1 DEBをリアルタイム追跡

Download on the App Store